Weather History for Lambertville, MI

Change the Weather History Date:

Monday, October 29, 2012

  Actual Average (KTOL) Record (KTOL)
Temperature  
Mean Temperature 42 °F 48 °F  
Max Temperature 43 °F 58 °F 78 °F (1999)
Min Temperature 40 °F 38 °F 16 °F (1965)
Degree Days  
Heating Degree Days 24 17  
Month to date heating degree days 368  
Since 1 July heating degree days 492  
Cooling Degree Days 0 0  
Month to date cooling degree days 8  
Year to date cooling degree days 792  
Moisture  
Dew Point 28 °F    
Average Humidity 59    
Maximum Humidity 64    
Minimum Humidity 48    
Precipitation  
Precipitation 0.00 in 0.08 in 0.50 in (1973)
Month to date precipitation 2.44  
Year to date precipitation 28.54  
Snow  
Snow 0.00 in 0.10 in - ()
Month to date snowfall 0.2  
Since 1 July snowfall 0.2  
Since 1 September snowfall 0.2  
Snow Depth -    
Sea Level Pressure  
Sea Level Pressure 29.95 in    
Wind  
Wind Speed 13 mph (NNW)    
Max Wind Speed 24 mph    
Max Gust Speed 41 mph    
Visibility 10 miles    
Events      
T = Trace of Precipitation, MM = Missing Value Source: NWS Daily Summary

Daily Weather History Graph

Daily Weather History Graph

Search for Another Location

Airport:

Trip Planner

Search our weather history database for the weather conditions in past years. The results will help you decide how hot, cold, wet, or windy it might be!

Date:

Astronomy

Oct. 29, 2012 Rise Set
Actual Time 8:03 AM EDT 6:32 PM EDT
Civil Twilight 7:34 AM EDT 7:00 PM EDT
Nautical Twilight 7:02 AM EDT 7:33 PM EDT
Astronomical Twilight 6:29 AM EDT 8:05 PM EDT
Moon 6:23 PM EDT (10/29) 7:53 AM EDT (10/29)
Length of Visible Light 11h 26m
Length of Day
10h 28m
Full, 100% of the Moon is Illuminated
Oct 29
Full
Oct 29
Full
Nov 6
Last Quarter
Nov 13
New
Nov 20
First Quarter

Hourly Weather History & Observations

Time (EDT) Temp. Windchill Dew Point Humidity Pressure Visibility Wind Dir Wind Speed Gust Speed Precip Events Conditions
12:15 AM 42.6 °F 37.8 °F 29.3 °F 59% 30.09 in 10.0 mi NNW 8.1 mph - N/A   Overcast
12:35 AM 42.4 °F 39.6 °F 29.3 °F 60% 30.09 in 10.0 mi North 4.6 mph - N/A   Overcast
12:55 AM 42.4 °F 37.0 °F 29.3 °F 60% 30.08 in 10.0 mi North 9.2 mph 19.6 mph N/A   Overcast
1:15 AM 42.3 °F 36.3 °F 29.3 °F 60% 30.07 in 10.0 mi North 10.4 mph 16.1 mph N/A   Overcast
1:35 AM 42.1 °F 36.6 °F 28.9 °F 60% 30.07 in 10.0 mi North 9.2 mph 18.4 mph N/A   Overcast
1:55 AM 41.9 °F 36.3 °F 28.6 °F 59% 30.07 in 10.0 mi North 9.2 mph - N/A   Overcast
2:14 AM 41.4 °F 35.2 °F 27.7 °F 58% 30.07 in 10.0 mi NNW 10.4 mph - N/A   Overcast
2:35 AM 41.4 °F 35.2 °F 27.7 °F 58% 30.06 in 10.0 mi North 10.4 mph 16.1 mph N/A   Overcast
2:55 AM 41.4 °F 35.2 °F 27.5 °F 58% 30.07 in 10.0 mi North 10.4 mph 20.7 mph N/A   Overcast
3:15 AM 41.4 °F 35.7 °F 28.0 °F 59% 30.06 in 10.0 mi NNW 9.2 mph - N/A   Overcast
3:35 AM 41.2 °F 35.0 °F 28.0 °F 60% 30.05 in 10.0 mi NNW 10.4 mph 17.3 mph N/A   Overcast
3:55 AM 41.0 °F 33.9 °F 28.2 °F 60% 30.04 in 10.0 mi NNW 12.7 mph 17.3 mph N/A   Overcast
4:15 AM 41.0 °F 34.3 °F 28.2 °F 60% 30.04 in 10.0 mi NNW 11.5 mph 17.3 mph N/A   Overcast
4:35 AM 41.0 °F 35.2 °F 28.2 °F 60% 30.04 in 10.0 mi NNW 9.2 mph 18.4 mph N/A   Overcast
4:54 AM 41.2 °F 34.5 °F 28.4 °F 60% 30.04 in 10.0 mi NNW 11.5 mph 18.4 mph N/A   Overcast
5:15 AM 41.0 °F 33.1 °F 28.4 °F 61% 30.03 in 10.0 mi NNW 15.0 mph 20.7 mph N/A   Overcast
5:35 AM 41.0 °F 34.7 °F 28.8 °F 62% 30.03 in 10.0 mi North 10.4 mph 17.3 mph N/A   Overcast
5:55 AM 41.0 °F 33.1 °F 28.6 °F 61% 30.03 in 10.0 mi NNW 15.0 mph 19.6 mph N/A   Overcast
6:15 AM 41.0 °F 33.9 °F 28.8 °F 62% 30.03 in 10.0 mi North 12.7 mph 20.7 mph N/A   Overcast
6:55 AM 40.5 °F 33.2 °F 28.6 °F 63% 30.03 in 10.0 mi NNW 12.7 mph 23.0 mph N/A   Overcast
7:15 AM 40.5 °F 33.6 °F 28.8 °F 63% 30.03 in 10.0 mi North 11.5 mph 21.9 mph N/A   Overcast
7:34 AM 40.5 °F 32.8 °F 28.8 °F 63% 30.03 in 10.0 mi NNW 13.8 mph 19.6 mph N/A   Overcast
7:48 AM 40.5 °F 32.8 °F 28.8 °F 63% 30.03 in 10.0 mi NNW 13.8 mph 20.7 mph N/A   Overcast
8:16 AM 41.0 °F 33.9 °F 28.4 °F 61% 30.03 in 10.0 mi NNW 12.7 mph 23.0 mph N/A   Overcast
8:38 AM 41.0 °F 33.9 °F 28.4 °F 61% 30.03 in 10.0 mi NNW 12.7 mph 21.9 mph N/A   Overcast
8:41 AM 40.3 °F 32.2 °F 28.9 °F 64% 30.03 in 10.0 mi NNW 15.0 mph 25.3 mph N/A   Overcast
8:55 AM 40.5 °F 32.5 °F 28.9 °F 64% 30.02 in 10.0 mi NNW 15.0 mph 23.0 mph N/A   Overcast
9:15 AM 40.5 °F 31.8 °F 29.3 °F 64% 30.03 in 10.0 mi NNW 17.3 mph 25.3 mph N/A   Overcast
9:34 AM 40.6 °F 31.7 °F 29.1 °F 64% 30.03 in 10.0 mi North 18.4 mph 21.9 mph N/A   Overcast
9:55 AM 40.6 °F 33.4 °F 29.3 °F 64% 30.02 in 10.0 mi NNW 12.7 mph 20.7 mph N/A   Overcast
10:15 AM 41.0 °F 32.5 °F 29.3 °F 63% 30.01 in 10.0 mi North 17.3 mph 27.6 mph N/A   Overcast
10:34 AM 41.0 °F 33.5 °F 29.1 °F 63% 30.02 in 10.0 mi NNW 13.8 mph 27.6 mph N/A   Overcast
10:55 AM 41.0 °F 32.5 °F 29.3 °F 63% 30.01 in 10.0 mi North 17.3 mph 28.8 mph N/A   Overcast
11:15 AM 41.0 °F 34.3 °F 29.5 °F 64% 30.01 in 10.0 mi NNW 11.5 mph 26.5 mph N/A   Overcast
11:35 AM 41.5 °F 34.6 °F 29.8 °F 63% 30.01 in 10.0 mi North 12.7 mph 25.3 mph N/A   Overcast
11:55 AM 41.9 °F 33.7 °F 30.0 °F 63% 30.00 in 10.0 mi NNW 17.3 mph 25.3 mph N/A   Overcast
12:14 PM 41.9 °F 33.7 °F 30.0 °F 63% 30.00 in 10.0 mi NNW 17.3 mph 24.2 mph N/A   Overcast
12:35 PM 42.4 °F 35.3 °F 30.2 °F 62% 29.99 in 10.0 mi NNW 13.8 mph 26.5 mph N/A   Overcast
12:55 PM 42.3 °F 33.6 °F 30.4 °F 63% 29.98 in 10.0 mi NNW 19.6 mph 31.1 mph N/A   Overcast
1:35 PM 42.8 °F 35.1 °F 30.6 °F 62% 29.98 in 10.0 mi NNW 16.1 mph 27.6 mph N/A   Overcast
2:15 PM 42.8 °F 35.1 °F 30.7 °F 62% 29.96 in 10.0 mi NNW 16.1 mph 29.9 mph N/A   Overcast
2:35 PM 43.0 °F 34.2 °F 30.7 °F 62% 29.95 in 10.0 mi North 20.7 mph 28.8 mph N/A   Overcast
2:55 PM 43.2 °F 35.3 °F 31.1 °F 62% 29.95 in 10.0 mi North 17.3 mph 28.8 mph N/A   Overcast
3:15 PM 43.2 °F 35.3 °F 31.1 °F 62% 29.94 in 10.0 mi NNW 17.3 mph 31.1 mph N/A   Overcast
3:35 PM 43.2 °F 34.5 °F 31.1 °F 62% 29.93 in 10.0 mi NNW 20.7 mph 27.6 mph N/A   Overcast
3:55 PM 43.2 °F 34.7 °F 30.9 °F 62% 29.93 in 10.0 mi North 19.6 mph 25.3 mph N/A   Overcast
4:15 PM 43.0 °F 34.8 °F 30.6 °F 62% 29.92 in 10.0 mi NNW 18.4 mph 28.8 mph N/A   Overcast
4:34 PM 42.8 °F 34.5 °F 30.2 °F 61% 29.91 in 10.0 mi NNW 18.4 mph 29.9 mph N/A   Overcast
4:55 PM 42.8 °F 34.0 °F 29.8 °F 60% 29.90 in 10.0 mi NNW 20.7 mph 34.5 mph N/A   Overcast
5:15 PM 42.8 °F 34.5 °F 29.8 °F 60% 29.90 in 10.0 mi NNW 18.4 mph 24.2 mph N/A   Overcast
5:34 PM 43.0 °F 35.4 °F 29.7 °F 59% 29.89 in 10.0 mi North 16.1 mph 26.5 mph N/A   Overcast
5:55 PM 43.0 °F 34.2 °F 29.3 °F 59% 29.88 in 10.0 mi NNW 20.7 mph 31.1 mph N/A   Overcast
6:14 PM 43.0 °F 34.5 °F 29.1 °F 58% 29.87 in 10.0 mi North 19.6 mph 26.5 mph N/A   Overcast
6:35 PM 43.2 °F 36.2 °F 28.6 °F 56% 29.87 in 10.0 mi NNW 13.8 mph 27.6 mph N/A   Overcast
6:55 PM 43.2 °F 36.2 °F 28.2 °F 56% 29.86 in 10.0 mi NNW 13.8 mph 25.3 mph N/A   Overcast
7:14 PM 43.3 °F 35.5 °F 27.7 °F 54% 29.85 in 10.0 mi North 17.3 mph 23.0 mph N/A   Overcast
7:35 PM 43.3 °F 35.5 °F 27.1 °F 53% 29.84 in 10.0 mi North 17.3 mph 31.1 mph N/A   Overcast
7:55 PM 43.3 °F 34.7 °F 26.8 °F 52% 29.83 in 10.0 mi NNW 20.7 mph 27.6 mph N/A   Overcast
8:14 PM 43.3 °F 35.8 °F 26.6 °F 52% 29.82 in 10.0 mi NNW 16.1 mph 31.1 mph N/A   Overcast
8:35 PM 43.0 °F 35.1 °F 26.4 °F 52% 29.81 in 10.0 mi North 17.3 mph 27.6 mph N/A   Overcast
8:54 PM 43.0 °F 34.8 °F 26.1 °F 51% 29.79 in 10.0 mi NNW 18.4 mph 32.2 mph N/A   Overcast
9:15 PM 42.8 °F 34.0 °F 25.7 °F 51% 29.78 in 10.0 mi NNW 20.7 mph 31.1 mph N/A   Overcast
9:35 PM 42.8 °F 33.5 °F 25.3 °F 50% 29.77 in 10.0 mi NNW 23.0 mph 31.1 mph N/A   Overcast
9:55 PM 42.6 °F 34.9 °F 25.0 °F 50% 29.76 in 10.0 mi North 16.1 mph 31.1 mph N/A   Overcast
10:15 PM 42.4 °F 32.8 °F 24.1 °F 48% 29.75 in 10.0 mi NNW 24.2 mph 28.8 mph N/A   Overcast
10:34 PM 42.3 °F 33.8 °F 23.7 °F 48% 29.74 in 10.0 mi North 18.4 mph 36.8 mph N/A   Overcast
10:55 PM 41.9 °F 32.8 °F 23.7 °F 49% 29.73 in 10.0 mi North 20.7 mph 39.1 mph N/A   Overcast
11:15 PM 41.4 °F 32.7 °F 23.9 °F 50% 29.72 in 10.0 mi North 18.4 mph 41.4 mph N/A   Overcast
11:34 PM 41.2 °F 32.7 °F 24.1 °F 51% 29.70 in 10.0 mi North 17.3 mph 35.7 mph N/A   Overcast
11:55 PM 40.1 °F 30.5 °F 25.7 °F 56% 29.68 in 10.0 mi North 20.7 mph 38.0 mph N/A   Overcast